When you browse on this site, cookies collect data to enhance your experience and personalize the content and advertising you see.
Visit our Privacy Policy to learn more. By continuing to use the site, you agree to this use of cookies and data.
  • In United Kingdom
  • List of Countries
  • For 7 days
  • Water Temperature
  • Satellite Maps
  • Weather Map
  • Weather Widgets
  • user-avatar
    Login

    Hourly Weather Perth

    Today, 20 April, Saturday

    Time Temperature Precipitation Wind Pressure Humidity
    00:00 +12°C° 0.1 mm 4 mps 765 mmHg 67%
    01:00 +12°C° 0.1 mm 4 mps 765 mmHg 67%
    02:00 +11°C° 0 mm 3 mps 766 mmHg 69%
    03:00 +12°C° 0 mm 2 mps 766 mmHg 69%
    04:00 +10°C° 0 mm 2 mps 766 mmHg 69%
    05:00 +10°C° 0 mm 2 mps 766 mmHg 69%
    06:00 +10°C° 0 mm 2 mps 767 mmHg 66%
    07:00 +12°C° 0 mm 2 mps 767 mmHg 64%
    08:00 +12°C° 0 mm 2 mps 768 mmHg 60%
    09:00 +13°C° 0 mm 3 mps 768 mmHg 54%
    10:00 +14°C° 0 mm 3 mps 768 mmHg 48%
    11:00 +17°C° 0 mm 3 mps 768 mmHg 42%
    12:00 +18°C° 0 mm 3 mps 767 mmHg 42%
    13:00 +18°C° 0 mm 4 mps 767 mmHg 41%
    14:00 +19°C° 0 mm 4 mps 767 mmHg 41%
    15:00 +19°C° 0 mm 4 mps 767 mmHg 44%
    16:00 +18°C° 0 mm 4 mps 767 mmHg 46%
    17:00 +18°C° 0 mm 4 mps 767 mmHg 49%
    18:00 +17°C° 0 mm 3 mps 768 mmHg 53%
    19:00 +16°C° 0 mm 3 mps 768 mmHg 58%
    20:00 +14°C° 0 mm 3 mps 768 mmHg 62%
    21:00 +13°C° 0 mm 3 mps 769 mmHg 62%
    22:00 +13°C° 0 mm 3 mps 769 mmHg 63%
    23:00 +14°C° 0 mm 2 mps 769 mmHg 64%

    Tomorrow, 21 April, Sunday

    Time Temperature Precipitation Wind Pressure Humidity
    00:00 +13°C° 0 mm 2 mps 769 mmHg 64%
    01:00 +13°C° 0 mm 2 mps 769 mmHg 63%
    02:00 +13°C° 0 mm 2 mps 769 mmHg 63%
    03:00 +12°C° 0 mm 2 mps 769 mmHg 64%
    04:00 +11°C° 0 mm 3 mps 769 mmHg 66%
    05:00 +11°C° 0 mm 3 mps 768 mmHg 67%
    06:00 +12°C° 0 mm 3 mps 769 mmHg 65%
    07:00 +12°C° 0 mm 3 mps 769 mmHg 62%
    08:00 +13°C° 0 mm 3 mps 769 mmHg 60%
    09:00 +16°C° 0 mm 3 mps 769 mmHg 52%
    10:00 +18°C° 0 mm 2 mps 769 mmHg 45%
    11:00 +20°C° 0 mm 2 mps 769 mmHg 37%
    12:00 +21°C° 0 mm 2 mps 768 mmHg 34%
    13:00 +23°C° 0 mm 2 mps 767 mmHg 31%
    14:00 +24°C° 0 mm 2 mps 767 mmHg 28%
    15:00 +24°C° 0 mm 2 mps 767 mmHg 31%
    16:00 +23°C° 0 mm 2 mps 767 mmHg 33%
    17:00 +23°C° 0 mm 2 mps 766 mmHg 35%
    18:00 +20°C° 0 mm 2 mps 767 mmHg 39%
    19:00 +19°C° 0 mm 2 mps 767 mmHg 43%
    20:00 +18°C° 0 mm 2 mps 767 mmHg 46%
    21:00 +17°C° 0 mm 2 mps 767 mmHg 45%
    22:00 +17°C° 0 mm 2 mps 767 mmHg 43%
    23:00 +17°C° 0 mm 2 mps 767 mmHg 42%

    Day after tomorrow, 22 April, Monday

    Time Temperature Precipitation Wind Pressure Humidity
    00:00 +17°C° 0 mm 2 mps 767 mmHg 42%
    01:00 +16°C° 0 mm 3 mps 766 mmHg 42%
    02:00 +16°C° 0 mm 3 mps 766 mmHg 43%
    03:00 +16°C° 0 mm 3 mps 766 mmHg 44%
    04:00 +16°C° 0 mm 3 mps 766 mmHg 45%
    05:00 +16°C° 0 mm 3 mps 766 mmHg 47%
    06:00 +17°C° 0 mm 3 mps 766 mmHg 46%
    07:00 +17°C° 0 mm 3 mps 766 mmHg 46%
    08:00 +18°C° 0 mm 3 mps 766 mmHg 45%
    09:00 +20°C° 0 mm 3 mps 766 mmHg 41%
    10:00 +22°C° 0 mm 3 mps 766 mmHg 36%
    11:00 +25°C° 0 mm 3 mps 766 mmHg 32%
    12:00 +26°C° 0 mm 3 mps 765 mmHg 31%
    13:00 +26°C° 0 mm 2 mps 765 mmHg 30%
    14:00 +27°C° 0 mm 2 mps 764 mmHg 29%
    15:00 +26°C° 0 mm 3 mps 764 mmHg 33%
    16:00 +25°C° 0 mm 3 mps 765 mmHg 36%
    17:00 +24°C° 0 mm 3 mps 765 mmHg 40%
    18:00 +22°C° 0 mm 3 mps 765 mmHg 46%
    19:00 +20°C° 0 mm 3 mps 765 mmHg 52%
    20:00 +19°C° 0 mm 3 mps 766 mmHg 58%
    21:00 +18°C° 0 mm 3 mps 766 mmHg 59%
    22:00 +18°C° 0 mm 3 mps 766 mmHg 60%
    23:00 +17°C° 0 mm 3 mps 767 mmHg 62%

    23 April, Tuesday

    Time Temperature Precipitation Wind Pressure Humidity
    00:00 +17°C° 0 mm 3 mps 767 mmHg 62%
    01:00 +17°C° 0 mm 3 mps 766 mmHg 62%
    02:00 +16°C° 0 mm 3 mps 766 mmHg 63%
    03:00 +16°C° 0 mm 3 mps 766 mmHg 64%
    04:00 +16°C° 0 mm 3 mps 766 mmHg 66%
    05:00 +16°C° 0 mm 3 mps 766 mmHg 68%
    06:00 +16°C° 0 mm 3 mps 767 mmHg 66%
    07:00 +17°C° 0 mm 3 mps 767 mmHg 64%
    08:00 +17°C° 0 mm 3 mps 768 mmHg 62%
    09:00 +20°C° 0 mm 2 mps 768 mmHg 53%
    10:00 +23°C° 0 mm 2 mps 767 mmHg 44%
    11:00 +26°C° 0 mm 1 mps 767 mmHg 34%
    12:00 +27°C° 0 mm 2 mps 767 mmHg 33%
    13:00 +28°C° 0 mm 2 mps 766 mmHg 32%
    14:00 +28°C° 0 mm 2 mps 765 mmHg 31%
    15:00 +27°C° 0 mm 3 mps 766 mmHg 35%
    16:00 +26°C° 0 mm 3 mps 766 mmHg 39%
    17:00 +25°C° 0 mm 4 mps 766 mmHg 44%
    18:00 +23°C° 0 mm 4 mps 766 mmHg 49%
    19:00 +21°C° 0 mm 3 mps 767 mmHg 54%
    20:00 +20°C° 0 mm 3 mps 767 mmHg 59%
    21:00 +19°C° 0 mm 3 mps 767 mmHg 56%
    22:00 +19°C° 0 mm 3 mps 767 mmHg 53%
    23:00 +19°C° 0 mm 3 mps 768 mmHg 51%

    24 April, Wednesday

    Time Temperature Precipitation Wind Pressure Humidity
    00:00 +19°C° 0 mm 3 mps 767 mmHg 50%
    01:00 +19°C° 0 mm 4 mps 767 mmHg 49%
    02:00 +19°C° 0 mm 4 mps 767 mmHg 48%
    03:00 +19°C° 0 mm 4 mps 767 mmHg 52%
    04:00 +17°C° 0 mm 5 mps 767 mmHg 56%
    05:00 +17°C° 0 mm 5 mps 767 mmHg 59%
    06:00 +17°C° 0 mm 5 mps 768 mmHg 61%
    07:00 +17°C° 0 mm 5 mps 768 mmHg 62%
    08:00 +19°C° 0 mm 5 mps 768 mmHg 63%
    09:00 +21°C° 0 mm 5 mps 768 mmHg 54%
    10:00 +23°C° 0 mm 4 mps 768 mmHg 46%
    11:00 +27°C° 0 mm 4 mps 768 mmHg 37%
    12:00 +28°C° 0 mm 3 mps 767 mmHg 34%
    13:00 +29°C° 0 mm 2 mps 767 mmHg 32%
    14:00 +30°C° 0 mm 2 mps 766 mmHg 29%
    15:00 +29°C° 0 mm 2 mps 766 mmHg 31%
    16:00 +28°C° 0 mm 2 mps 766 mmHg 32%
    17:00 +28°C° 0 mm 2 mps 766 mmHg 34%
    18:00 +26°C° 0 mm 2 mps 767 mmHg 37%
    19:00 +25°C° 0 mm 2 mps 767 mmHg 41%
    20:00 +23°C° 0 mm 2 mps 767 mmHg 44%
    21:00 +23°C° 0 mm 2 mps 767 mmHg 43%
    22:00 +21°C° 0 mm 2 mps 767 mmHg 43%
    23:00 +21°C° 0 mm 3 mps 767 mmHg 42%

    25 April, Thursday

    Time Temperature Precipitation Wind Pressure Humidity
    00:00 +21°C° 0 mm 3 mps 767 mmHg 42%
    01:00 +21°C° 0 mm 3 mps 767 mmHg 42%
    02:00 +21°C° 0 mm 4 mps 767 mmHg 42%
    03:00 +20°C° 0 mm 4 mps 767 mmHg 43%
    04:00 +20°C° 0 mm 4 mps 767 mmHg 44%
    05:00 +20°C° 0 mm 4 mps 767 mmHg 45%
    06:00 +20°C° 0 mm 4 mps 767 mmHg 44%
    07:00 +20°C° 0 mm 4 mps 767 mmHg 44%
    08:00 +21°C° 0 mm 4 mps 768 mmHg 43%
    09:00 +23°C° 0 mm 4 mps 768 mmHg 39%
    10:00 +26°C° 0 mm 4 mps 768 mmHg 35%
    11:00 +28°C° 0 mm 3 mps 767 mmHg 32%
    12:00 +29°C° 0 mm 3 mps 767 mmHg 30%
    13:00 +30°C° 0 mm 3 mps 766 mmHg 29%
    14:00 +30°C° 0 mm 3 mps 766 mmHg 27%
    15:00 +30°C° 0 mm 3 mps 766 mmHg 28%
    16:00 +29°C° 0 mm 3 mps 766 mmHg 29%
    17:00 +29°C° 0 mm 3 mps 765 mmHg 30%
    18:00 +27°C° 0 mm 2 mps 766 mmHg 32%
    19:00 +25°C° 0 mm 2 mps 766 mmHg 35%
    20:00 +24°C° 0 mm 2 mps 766 mmHg 37%
    21:00 +24°C° 0 mm 3 mps 766 mmHg 37%
    22:00 +22°C° 0 mm 3 mps 766 mmHg 38%
    23:00 +22°C° 0 mm 3 mps 767 mmHg 38%
    Show more